CAPE
272 331 611 829 718 655 517 340 313 266 162 198 51 29 139 241 304 428 476 566 577 478 276 110 117 0 14 6 1 0 0 0 0 0 0 0 0 23 30 0 24 0 6
618 793 777 1166 1240 1071 836 660 491 488 364 279 187 157 266 534 739 784 825 799 785 458 333 327 196 13 1 3 0 0 0 0 0 0 0 0 0 0 0 3 47 3 0
1059 1229 1157 1229 1368 1345 1164 970 746 536 424 617 1128 1510 1570 1172 900 963 1049 946 656 628 315 394 326 13 8 1 0 0 0 0 0 0 0 0 0 0 0 0 0 0 0
1374 1460 1441 1477 1439 1380 1266 1375 1391 1329 1136 582 944 842 792 783 752 641 769 915 834 652 450 521 285 38 12 1 0 0 0 0 0 0 0 0 0 0 0 0 0 0 2
1448 1526 1521 1537 1496 1331 939 343 229 276 349 284 636 794 756 829 998 1031 512 528 384 318 421 433 203 55 0 0 0 0 0 0 0 0 0 0 0 0 0 0 0 0 0
1374 1039 954 960 653 218 133 410 576 549 559 821 579 701 763 860 1052 45 1 110 179 162 294 29 29 56 3 0 0 0 0 0 0 0 0 0 0 0 0 0 0 0 0
120 40 0 11 197 152 253 503 601 613 602 629 647 556 648 718 731 1 0 1 32 193 88 1 1 0 0 0 0 0 0 0 0 0 0 0 0 0 0 0 0 0 0
475 385 346 501 574 433 422 499 525 546 486 455 286 457 770 695 0 1 1 29 105 151 9 0 0 0 0 0 0 0 0 0 0 0 0 0 0 0 0 0 0 0 0
596 592 613 451 274 136 143 176 84 116 42 54 107 16 1 1 1 1 2 120 324 58 0 0 0 0 0 0 0 0 0 0 0 0 0 0 0 0 0 0 0 0 0
312 360 330 73 0 0 0 0 0 104 0 0 8 3 1 1 1 1 1 1 38 205 3 0 0 0 0 0 0 0 0 0 0 0 0 0 0 0 0 0 0 0 0
31 2 0 0 0 0 0 0 0 0 0 0 4 2 2 0 1 1 1 1 0 1 20 1 0 0 0 0 0 0 0 0 0 0 0 0 0 0 0 0 0 0 0
2 0 0 0 0 0 0 0 0 0 0 0 0 4 2 1 0 1 1 1 0 1 3 1 0 0 0 0 0 0 0 0 0 0 0 0 0 0 0 0 0 0 0
0 0 0 0 0 0 0 0 0 0 0 1 0 2 2 3 0 0 0 0 0 0 1 1 0 0 0 0 0 0 0 0 0 0 0 0 0 0 0 0 0 0 0
0 0 0 0 0 0 0 0 0 0 0 0 0 1 2 0 0 0 0 0 0 1 0 0 0 0 0 0 0 0 0 0 0 0 0 0 0 0 0 0 0 0 0
0 0 0 0 0 0 0 0 0 2 0 0 0 1 0 0 0 0 0 0 0 0 0 0 0 0 0 0 0 0 0 0 0 0 0 0 0 0 0 0 0 0 0
0 0 0 0 0 0 0 0 0 0 0 0 1 0 0 0 0 0 1 2 2 1 1 1 0 0 0 0 0 0 0 0 0 0 0 0 0 0 0 0 0 0 0
0 0 0 0 0 0 0 0 0 0 1 0 1 0 0 0 0 0 0 0 1 1 1 1 1 1 0 1 0 0 0 0 0 0 0 0 0 0 0 0 0 0 0
0 0 0 0 0 0 0 0 0 0 0 0 0 0 0 0 0 0 0 0 0 1 2 3 5 2 0 0 0 0 0 0 0 0 0 0 0 0 0 0 0 0 0
0 0 0 0 0 0 0 0 0 0 0 0 0 0 0 0 0 0 0 2 3 2 3 3 4 3 4 2 1 0 0 0 0 0 0 0 0 0 0 0 0 0 0
0 0 0 0 0 0 0 0 0 0 0 0 0 0 0 0 0 0 0 0 3 4 4 3 3 3 4 5 6 2 2 2 0 0 1 0 0 0 0 0 0 0 0
0 0 0 0 0 0 0 0 0 0 0 0 0 0 0 1 3 3 2 2 3 2 3 4 4 4 5 5 5 3 4 2 2 2 2 1 0 0 0 0 0 0 0
0 0 0 0 0 0 0 0 0 0 0 0 0 0 0 0 2 1 1 1 1 1 3 4 3 5 4 5 5 4 4 8 3 3 6 0 0 0 0 0 0 0 0
0 0 0 0 0 0 0 0 0 0 0 0 0 2 1 0 0 2 2 2 2 2 3 2 4 4 4 5 7 7 5 3 2 4 4 4 0 0 0 0 0 0 0
0 0 0 0 0 0 0 0 0 0 0 1 0 0 0 0 1 1 1 3 3 3 3 5 6 4 5 4 4 4 6 3 1 5 3 2 0 0 0 0 0 0 0
0 0 0 0 0 0 0 0 0 0 0 0 0 0 0 0 0 2 5 4 3 2 3 2 3 2 2 3 4 3 0 1 0 1 3 4 3 1 0 0 0 0 0
0 0 0 0 0 0 0 0 0 0 0 0 0 0 0 1 2 1 1 1 1 0 1 1 0 2 2 1 2 0 0 0 0 0 0 2 5 2 0 0 0 0 0
CIN
-389 -378 -312 -310 -293 -289 -296 -306 -290 -269 -256 -221 -257 -241 -187 -156 -158 -158 -161 -154 -145 -148 -114 -62 -63 -9 -88 -83 -9 -0 -0 -0 -0 -0 -0 -0 -0 -65 -44 -0 -47 -0 -6
-369 -344 -332 -301 -258 -239 -253 -256 -262 -233 -251 -245 -222 -214 -174 -150 -151 -158 -165 -184 -130 -152 -150 -104 -75 -83 -4 -66 -0 -0 -0 -0 -0 -0 -0 -0 -0 -4 -3 -99 -78 -134 -0
-344 -325 -321 -302 -245 -215 -206 -195 -208 -235 -244 -197 -128 -106 -108 -120 -142 -145 -134 -149 -150 -142 -168 -125 -90 -167 -134 -0 -0 -0 -0 -0 -0 -0 -0 -0 -0 -0 -0 -0 -0 -0 -0
-344 -330 -308 -281 -246 -207 -207 -171 -148 -148 -159 -222 -162 -170 -171 -156 -153 -161 -128 -121 -138 -154 -155 -159 -131 -172 -161 -0 -0 -0 -0 -0 -0 -0 -0 -0 -0 -0 -0 -0 -0 -0 -210
-346 -319 -296 -270 -246 -222 -262 -350 -356 -300 -262 -270 -197 -166 -164 -143 -108 -100 -169 -167 -196 -199 -173 -173 -180 -223 -0 -0 -0 -0 -0 -0 -0 -0 -0 -0 -0 -0 -0 -0 -0 -0 -0
-353 -375 -373 -349 -360 -447 -443 -325 -247 -240 -204 -150 -170 -158 -141 -113 -80 -303 -0 -241 -246 -227 -176 -330 -331 -238 -301 -0 -0 -0 -0 -0 -0 -0 -0 -0 -0 -0 -0 -0 -0 -0 -0
-710 -759 -0 -151 -442 -444 -374 -273 -229 -193 -180 -164 -150 -156 -128 -112 -116 -0 -0 -45 -314 -206 -238 -0 -0 -0 -0 -0 -0 -0 -0 -0 -0 -0 -0 -0 -0 -0 -0 -0 -0 -0 -0
-475 -469 -440 -336 -275 -289 -288 -239 -203 -163 -169 -171 -199 -157 -99 -98 -0 -0 -0 -356 -277 -225 -155 -0 -0 -0 -0 -0 -0 -0 -0 -0 -0 -0 -0 -0 -0 -0 -0 -0 -0 -0 -0
-330 -320 -287 -292 -360 -445 -418 -359 -404 -332 -408 -361 -269 -58 -0 -0 -0 -0 -355 -270 -166 -330 -0 -0 -0 -0 -0 -0 -0 -0 -0 -0 -0 -0 -0 -0 -0 -0 -0 -0 -0 -0 -0
-395 -346 -345 -533 -0 -0 -0 -0 -0 -328 -0 -0 -239 -0 -0 -0 -0 -0 -0 -403 -292 -156 -39 -0 -0 -0 -0 -0 -0 -0 -0 -0 -0 -0 -0 -0 -0 -0 -0 -0 -0 -0 -0
-588 -268 -0 -0 -0 -0 -0 -0 -0 -0 -0 -0 -0 -0 -0 -0 -0 -0 -0 -0 -0 -0 -212 -0 -0 -0 -0 -0 -0 -0 -0 -0 -0 -0 -0 -0 -0 -0 -0 -0 -0 -0 -0
-223 -0 -0 -0 -0 -0 -0 -0 -0 -0 -0 -0 -0 -0 -0 -0 -0 -0 -0 -0 -0 -0 -0 -0 -0 -0 -0 -0 -0 -0 -0 -0 -0 -0 -0 -0 -0 -0 -0 -0 -0 -0 -0
-0 -0 -0 -0 -0 -0 -0 -0 -0 -0 -0 -0 -0 -0 -0 -0 -0 -0 -0 -0 -0 -0 -0 -0 -0 -0 -0 -0 -0 -0 -0 -0 -0 -0 -0 -0 -0 -0 -0 -0 -0 -0 -0
-0 -0 -0 -0 -0 -0 -0 -0 -0 -0 -0 -0 -0 -0 -0 -0 -0 -0 -0 -0 -0 -0 -0 -0 -0 -0 -0 -0 -0 -0 -0 -0 -0 -0 -0 -0 -0 -0 -0 -0 -0 -0 -3
-0 -0 -0 -0 -0 -0 -0 -0 -0 -0 -0 -0 -0 -0 -0 -0 -0 -0 -0 -0 -0 -0 -0 -0 -0 -0 -0 -0 -0 -0 -0 -0 -0 -0 -0 -0 -0 -0 -0 -0 -0 -0 -0
-0 -0 -0 -0 -0 -0 -0 -0 -0 -0 -0 -0 -0 -0 -0 -0 -0 -0 -0 -0 -0 -0 -0 -0 -0 -0 -0 -0 -0 -0 -0 -0 -0 -0 -0 -0 -0 -0 -0 -0 -0 -0 -0
-0 -0 -0 -0 -0 -0 -0 -0 -0 -0 -0 -0 -0 -0 -0 -0 -0 -0 -0 -0 -0 -0 -0 -0 -0 -0 -0 -0 -0 -0 -0 -0 -0 -0 -0 -0 -0 -0 -0 -0 -0 -0 -0
-0 -0 -0 -0 -0 -0 -0 -0 -0 -0 -0 -0 -0 -0 -0 -0 -0 -0 -0 -0 -0 -0 -0 -0 -0 -0 -0 -0 -0 -0 -0 -0 -0 -0 -0 -0 -0 -0 -0 -0 -0 -0 -0
-0 -0 -0 -0 -0 -0 -0 -0 -0 -0 -0 -0 -0 -0 -0 -0 -0 -0 -0 -0 -0 -0 -0 -0 -0 -0 -0 -0 -0 -0 -0 -0 -0 -0 -0 -0 -0 -0 -0 -0 -0 -0 -0
-0 -0 -0 -0 -0 -0 -0 -0 -0 -0 -0 -0 -0 -0 -0 -0 -0 -0 -0 -0 -0 -0 -0 -0 -0 -0 -0 -0 -0 -0 -0 -0 -0 -0 -0 -0 -0 -0 -0 -0 -0 -0 -0
-0 -0 -0 -0 -0 -0 -0 -0 -0 -0 -0 -0 -0 -1 -0 -0 -0 -0 -0 -0 -0 -0 -0 -0 -0 -0 -0 -0 -0 -0 -0 -0 -0 -0 -0 -0 -0 -0 -0 -0 -0 -0 -0
-0 -0 -0 -0 -0 -0 -0 -0 -0 -0 -0 -0 -0 -0 -0 -0 -0 -0 -0 -0 -0 -0 -0 -0 -0 -0 -0 -0 -0 -0 -0 -0 -0 -0 -0 -0 -0 -0 -0 -0 -0 -0 -0
-0 -0 -0 -0 -0 -0 -0 -0 -0 -0 -0 -0 -0 -0 -0 -0 -0 -0 -0 -0 -0 -0 -0 -0 -0 -0 -0 -0 -0 -0 -0 -0 -0 -0 -0 -0 -0 -0 -0 -0 -0 -0 -0
-0 -0 -0 -0 -0 -0 -0 -0 -0 -0 -0 -1 -0 -0 -0 -0 -0 -0 -0 -0 -0 -0 -0 -0 -0 -0 -0 -0 -0 -0 -0 -0 -0 -0 -0 -0 -0 -0 -0 -0 -0 -0 -0
-0 -0 -0 -0 -0 -0 -0 -0 -0 -0 -0 -0 -0 -0 -0 -0 -0 -0 -0 -0 -0 -0 -0 -0 -0 -0 -0 -0 -0 -0 -0 -0 -0 -0 -0 -0 -0 -0 -0 -0 -0 -0 -0
-0 -0 -0 -0 -0 -0 -0 -0 -0 -0 -0 -0 -0 -0 -0 -0 -0 -0 -0 -0 -0 -0 -0 -0 -0 -0 -0 -0 -0 -0 -0 -0 -0 -0 -0 -0 -0 -0 -1 -0 -0 -0 -0
Wind_Speed
9 8 9 8 7 6 6 6 6 4 4 5 4 5 6 6 6 5 6 8 7 5 4 6 8 8 7 6 3 1 3 4 3 1 2 2 3 5 1 2 3 5 3
10 9 10 7 6 6 6 6 5 6 5 4 5 5 6 6 6 7 8 7 5 6 7 8 8 6 9 6 4 4 4 3 4 4 2 2 3 4 3 2 2 3 3
9 9 7 7 7 7 7 6 5 5 4 4 4 5 4 6 6 6 6 7 4 6 7 8 6 8 7 5 4 3 4 3 3 5 4 2 2 2 2 2 1 3 2
8 9 9 9 8 7 4 1 2 3 3 2 2 4 5 6 6 6 6 6 5 5 7 6 5 7 8 7 6 5 5 4 4 5 4 3 2 2 3 3 1 1 1
7 7 7 6 6 6 6 5 2 1 1 3 4 5 6 5 5 6 6 6 6 6 6 5 6 8 9 9 7 6 7 4 4 5 4 2 2 3 4 2 2 2 2
6 6 6 7 7 6 5 4 2 2 3 4 6 6 6 5 9 4 5 5 5 5 5 2 1 7 9 10 10 13 13 9 5 5 4 4 4 4 3 3 3 2 2
8 6 6 6 5 5 4 3 3 2 3 5 5 6 7 7 7 3 6 3 4 4 2 4 3 1 7 7 8 9 8 11 13 8 8 6 5 7 7 4 3 3 2
8 8 6 6 6 5 5 5 3 3 3 4 5 7 7 6 9 6 7 4 4 5 1 4 5 5 6 6 7 7 4 4 6 4 7 7 5 7 7 5 5 4 2
6 7 6 6 6 6 5 5 4 4 5 5 5 8 8 10 16 12 7 5 4 5 3 2 5 5 7 8 6 8 5 2 5 6 7 8 8 12 8 5 4 3 2
6 6 7 7 7 6 5 5 2 3 6 4 7 8 9 8 18 20 16 5 5 4 3 4 8 6 8 7 5 6 6 2 4 6 5 7 6 8 12 4 4 3 3
8 7 7 7 7 6 6 4 5 6 6 5 6 6 7 10 11 16 17 8 6 4 3 2 3 10 10 6 6 4 3 6 5 6 4 4 3 3 2 2 4 3 4
8 9 8 7 6 5 7 6 6 6 6 5 5 4 4 5 9 12 13 13 12 6 5 2 4 13 14 11 7 6 11 7 5 3 3 0 2 3 2 2 1 1 2
7 7 7 7 7 6 7 6 5 5 5 5 4 5 5 5 6 11 10 12 11 6 7 6 7 7 4 7 8 9 9 4 4 4 3 2 3 2 4 2 3 2 2
8 7 6 8 8 6 5 4 5 4 4 4 4 4 5 6 8 9 8 6 7 6 7 5 2 5 4 1 4 5 4 4 4 3 3 2 1 1 2 1 1 1 1
5 4 6 7 9 8 6 4 6 5 3 5 5 4 4 6 6 9 8 6 5 4 7 1 1 1 4 4 2 5 3 4 4 4 3 3 3 3 2 2 1 1 1
5 3 4 7 8 7 8 7 10 10 10 11 10 7 3 3 9 12 14 9 8 7 2 2 1 2 3 5 6 3 5 3 2 3 3 2 4 5 4 2 2 2 2
6 4 5 7 6 7 6 6 5 4 9 8 8 8 8 6 11 13 15 11 6 5 3 3 2 3 3 3 4 4 3 7 7 3 3 4 5 3 5 4 3 2 2
8 8 6 6 7 6 4 4 4 5 3 2 4 7 9 11 10 13 14 7 6 7 6 7 7 4 3 3 3 4 3 3 4 6 4 4 5 5 4 4 4 4 3
9 6 6 6 6 6 4 4 4 4 4 2 2 4 7 9 8 8 10 5 5 5 6 7 7 7 7 3 4 4 4 5 3 3 6 6 5 4 5 4 5 7 6
7 14 9 6 6 5 4 5 5 5 4 4 4 6 4 6 7 8 7 6 5 5 5 6 6 6 7 7 6 4 5 6 6 6 6 6 6 7 8 6 6 4 5
6 7 11 6 6 5 5 5 4 4 4 5 5 5 12 5 5 5 5 5 5 5 5 6 6 6 6 6 6 7 6 6 7 7 7 6 6 7 6 5 4 5 5
7 6 6 5 5 7 6 4 4 3 4 4 4 4 8 4 5 5 4 4 4 4 4 5 5 5 6 6 6 6 7 9 7 7 7 7 7 7 7 8 8 8 5
7 7 6 5 4 8 6 5 4 3 4 3 3 4 5 4 5 5 5 5 5 5 4 4 5 5 5 6 6 6 7 7 7 10 7 7 7 7 8 8 8 6 6
8 8 7 5 3 3 4 4 4 5 4 3 3 4 4 4 4 6 5 5 5 6 5 5 6 8 7 7 7 6 7 6 5 7 11 7 8 8 8 8 9 9 7
8 7 5 5 4 3 6 5 3 3 2 3 3 3 3 4 4 5 5 5 5 5 6 6 5 7 9 12 9 12 8 9 8 11 8 10 8 11 12 10 11 9 8
6 5 5 4 3 5 4 3 3 3 3 3 2 3 3 4 4 4 5 5 5 5 7 5 6 9 11 8 9 8 11 14 12 9 8 8 8 7 9 11 14 9 9
Wind_Direction
197 198 203 197 202 207 213 223 230 249 253 269 286 281 272 281 277 272 265 259 248 259 196 203 226 209 215 210 202 204 184 146 124 124 95 106 111 111 207 162 154 145 187
198 192 200 190 184 201 222 227 229 245 248 238 253 262 261 257 271 267 267 261 280 267 228 192 216 218 212 198 176 217 179 158 129 143 117 107 103 177 150 173 145 154 155
181 185 177 179 182 204 218 223 222 246 262 275 273 273 290 278 287 285 267 283 279 259 237 219 224 190 211 187 173 190 169 135 125 135 129 109 123 129 103 78 138 111 176
176 178 179 184 184 201 192 176 202 187 140 344 254 274 278 281 282 278 282 294 270 249 250 222 200 191 202 181 175 181 146 125 111 116 99 103 113 147 117 116 106 97 141
164 169 178 150 133 124 124 119 124 111 284 281 296 290 282 287 288 301 306 289 294 300 266 215 197 187 185 174 167 162 139 122 128 129 109 113 151 153 161 156 145 131 194
122 125 126 124 126 128 132 134 87 31 320 310 303 300 307 297 289 308 282 300 297 297 301 87 146 172 170 161 168 169 162 146 147 134 153 162 176 159 148 162 130 148 225
111 105 101 107 118 130 141 119 77 7 337 322 313 315 303 289 287 291 300 297 319 309 270 154 123 111 133 130 147 151 160 170 169 155 162 174 165 182 149 149 159 151 219
121 122 124 120 112 108 88 83 62 31 0 351 344 344 337 347 3 8 318 339 354 359 129 162 138 140 126 123 119 112 111 171 159 179 169 177 170 166 169 165 162 139 72
117 115 113 108 102 93 81 64 45 45 30 19 14 23 19 30 7 360 349 12 38 34 43 135 129 126 120 129 129 125 115 72 59 185 150 153 157 147 143 119 133 129 199
133 126 117 109 104 94 86 71 48 79 60 31 51 40 30 39 19 21 8 357 25 29 58 90 116 121 144 140 135 133 128 151 112 91 90 80 99 135 148 137 156 157 170
136 127 119 114 110 112 103 80 69 61 60 46 74 56 47 40 27 22 20 9 356 344 354 119 112 134 144 140 125 129 142 138 95 94 87 83 84 107 123 135 194 173 172
135 129 129 124 111 108 98 80 70 73 66 45 38 46 47 35 37 16 14 12 1 342 351 58 134 160 160 150 151 150 128 116 107 101 103 84 194 172 190 159 241 257 238
131 133 128 121 110 114 106 102 89 77 70 55 43 25 12 14 8 6 2 360 355 349 352 337 159 162 223 136 174 150 136 126 128 133 139 181 262 164 119 109 83 54 64
143 145 140 130 120 109 95 93 87 76 77 70 65 39 16 358 1 355 343 338 341 341 354 357 263 156 176 154 121 145 156 149 155 156 152 176 139 163 139 148 130 150 49
130 151 137 129 122 104 76 68 92 59 62 87 65 62 39 8 339 317 303 318 324 317 322 266 92 122 165 158 277 147 160 154 161 169 168 204 178 165 178 163 204 151 166
115 119 139 123 119 121 119 100 60 95 97 88 70 64 35 359 337 343 336 330 320 302 223 298 295 188 203 190 169 199 149 168 213 194 181 195 218 171 169 165 177 182 171
104 101 103 110 123 127 119 122 119 96 106 107 81 58 48 360 356 348 345 350 349 330 333 339 313 254 226 218 198 175 236 177 167 234 207 194 209 179 163 175 181 157 153
89 61 83 87 94 94 94 102 110 105 88 30 63 66 12 5 7 356 350 5 19 20 10 355 349 325 233 213 196 200 185 198 178 164 223 209 194 201 188 184 174 170 165
105 99 90 83 79 83 85 77 71 71 77 63 18 20 9 342 3 14 1 27 22 11 358 352 349 342 338 274 216 215 193 201 202 206 191 197 198 186 211 197 176 174 154
100 107 104 97 95 89 76 76 66 52 38 28 31 10 1 2 11 4 6 6 14 357 346 342 336 330 333 335 332 233 212 204 212 212 221 209 202 203 211 199 178 145 195
94 95 108 93 92 86 81 73 66 65 55 27 22 39 12 356 359 359 345 354 351 346 340 331 325 321 329 329 331 337 283 227 213 206 200 202 206 206 191 154 150 179 195
107 106 98 89 101 95 82 69 53 58 62 48 339 24 16 1 348 337 331 335 329 317 309 312 311 317 323 323 324 320 316 307 238 215 207 194 196 209 199 183 176 200 189
108 106 98 84 68 103 95 85 79 48 52 30 2 2 4 0 335 325 322 326 325 320 314 303 311 319 322 320 319 314 311 314 322 324 234 201 196 189 197 184 182 188 187
107 103 92 94 89 100 115 99 83 65 37 18 16 11 360 339 321 316 321 322 326 328 327 331 329 328 327 324 318 314 306 317 320 304 314 254 202 184 194 198 197 189 170
107 108 124 124 182 132 71 65 85 94 67 29 18 4 336 322 321 326 334 339 338 329 334 333 334 330 328 320 310 311 330 326 315 307 299 290 227 204 195 198 193 189 169
123 137 132 140 117 91 115 143 101 78 41 50 21 334 328 344 354 349 335 340 334 329 324 319 313 320 315 311 308 306 304 300 297 285 289 289 275 207 201 195 188 177 177